RH
86 84 78 78 78 80 84 87 82 86 69 62 65 50 51 50 51 49 63 64 61 64 63 59 58 59 60 62 62 62 63 63 62 62 61 60 59 58
94 91 84 72 78 84 84 83 88 89 94 90 90 82 68 63 76 83 81 82 78 70 63 57 58 61 63 63 62 63 63 62 62 62 61 60 58 57
92 83 81 80 88 90 91 90 92 92 92 93 91 93 94 94 93 94 89 78 64 59 56 55 56 58 61 63 63 62 62 62 61 61 60 59 58 60
83 84 85 81 90 88 91 94 95 99 97 99 99 100 100 100 99 99 79 56 51 48 51 56 60 63 62 60 61 62 62 62 62 61 60 59 58 58
83 82 84 84 92 95 96 98 99 98 99 98 99 99 99 96 85 68 62 55 44 48 52 51 50 52 57 61 64 64 64 64 64 63 62 62 62 61
84 85 86 90 96 100 100 100 99 99 99 99 98 96 89 78 74 69 63 57 54 39 43 48 52 52 56 57 57 58 60 63 64 65 64 63 63 62
97 98 100 95 92 95 96 99 99 99 99 98 86 80 75 70 66 60 60 60 60 56 56 54 58 58 55 54 52 53 53 55 58 61 63 64 62 61
99 98 98 98 96 96 96 96 90 85 88 85 86 74 63 60 57 64 81 74 76 61 63 61 58 57 55 54 52 53 56 57 60 62 64 64 64 62
99 98 93 81 79 75 76 70 66 65 66 70 70 63 60 62 88 89 80 79 78 64 66 68 59 60 56 44 52 55 58 59 61 62 64 64 62 61
86 77 69 62 61 59 57 70 68 65 62 53 62 62 62 61 63 81 85 79 69 63 63 78 63 64 58 57 57 59 60 62 63 64 65 66 65 64
60 57 54 50 53 56 63 77 68 63 52 58 56 57 60 61 62 70 82 84 82 73 66 74 75 76 72 69 64 60 57 58 60 63 64 65 66 65
48 45 54 58 60 61 68 69 72 61 60 61 58 55 53 55 51 62 80 93 87 90 79 90 90 87 96 83 83 73 66 65 63 63 64 65 65 61
52 52 53 65 66 65 65 67 62 59 57 59 57 52 53 59 64 65 69 93 88 91 77 84 97 92 90 88 82 80 77 75 73 71 68 68 69 70
53 53 59 65 65 62 59 52 58 62 60 53 60 70 78 85 78 76 77 81 80 86 85 91 97 93 95 93 90 81 81 80 82 84 86 78 74 73
60 67 64 58 52 51 45 58 62 59 57 68 78 88 77 79 84 84 85 85 87 90 88 89 96 95 96 95 93 88 87 83 83 88 90 88 88 84
60 64 51 53 50 53 54 50 56 57 64 74 80 83 86 82 81 80 85 85 91 86 87 89 92 96 96 93 93 91 84 93 85 85 87 85 83 81
65 51 41 41 48 48 54 58 62 62 72 79 82 78 79 79 81 80 88 89 95 92 86 83 81 85 92 97 96 86 84 87 86 88 89 90 86 86
58 42 46 53 57 59 62 64 69 73 75 80 83 85 89 90 88 86 86 93 92 86 88 84 87 89 86 82 78 91 87 88 86 85 86 93 89 82
51 55 62 65 71 75 79 79 80 76 87 92 94 90 90 91 87 87 88 93 90 90 87 83 88 95 95 92 74 66 83 81 81 83 83 86 91 85
59 68 72 72 75 80 76 84 82 82 87 88 89 92 93 94 94 90 89 93 91 86 91 87 89 86 95 95 94 83 75 87 87 89 89 84 82 74
62 66 66 73 78 80 79 86 85 86 89 91 88 90 92 94 93 91 91 83 84 88 92 90 85 73 84 85 94 83 73 74 78 85 85 88 88 84
61 64 67 74 80 85 81 84 85 85 92 86 88 90 92 94 94 92 90 93 87 86 87 87 84 85 92 96 92 86 80 74 73 74 74 76 93 96
68 68 72 78 83 86 89 89 88 86 87 90 89 93 94 95 91 91 90 90 91 90 86 89 83 83 93 94 94 87 88 82 79 79 76 70 73 82
Wind_Speed
10 11 6 3 2 1 2 2 6 5 5 3 3 3 2 3 3 3 4 5 8 12 14 16 16 18 18 19 19 20 21 23 23 23 23 24 23 24
4 6 3 4 5 3 3 3 3 3 3 3 2 3 1 2 3 2 4 9 12 17 17 16 16 18 20 21 21 21 21 23 23 23 24 24 24 24
2 6 8 8 5 5 5 5 5 3 2 2 2 3 3 2 2 2 5 6 7 17 17 18 19 18 21 22 22 22 21 23 23 23 23 23 24 25
6 8 9 7 8 6 4 5 5 3 1 4 3 3 3 3 2 4 6 7 8 13 16 18 20 20 21 21 21 20 20 21 22 22 23 23 23 24
8 8 8 9 7 5 5 5 4 3 3 2 3 2 2 3 5 5 6 7 6 14 17 18 17 19 20 20 20 21 21 22 23 23 23 23 24 25
8 8 6 6 7 7 5 6 4 5 2 3 2 1 3 4 4 5 6 5 4 6 10 15 18 17 18 18 20 20 20 21 21 21 22 23 23 25
8 9 7 9 11 9 4 6 4 3 2 2 3 2 3 4 5 2 3 4 4 7 5 6 5 5 8 16 17 19 19 19 20 21 22 23 24 25
8 9 8 10 9 10 8 8 6 4 3 1 1 3 4 4 2 2 3 4 6 2 3 8 7 7 8 8 18 21 21 21 22 22 23 24 25 25
7 5 6 5 5 4 3 2 1 4 3 2 4 4 4 3 3 2 5 5 7 7 8 11 6 9 8 9 19 22 22 22 23 23 23 23 23 24
5 5 6 4 4 2 2 1 3 4 4 4 4 4 4 3 3 3 4 6 7 7 5 10 6 9 9 8 21 23 23 21 20 20 21 22 22 23
5 6 4 2 2 2 3 2 3 3 2 4 7 10 11 11 9 4 5 5 7 6 5 7 5 6 8 11 9 17 17 17 20 22 23 22 23 24
3 3 4 4 4 4 4 3 3 3 3 4 4 5 8 7 10 6 4 4 5 5 1 2 3 4 5 3 3 6 10 18 21 23 25 24 24 12
2 1 1 5 5 5 6 5 4 5 7 3 4 4 3 4 3 4 4 3 6 8 9 5 3 5 6 8 6 7 9 11 9 12 20 23 23 18
3 3 3 5 7 7 6 7 7 6 4 3 3 3 3 2 4 5 5 6 7 11 9 7 6 7 8 10 12 8 9 10 10 11 8 14 21 22
4 5 6 7 7 6 3 6 6 3 3 3 3 2 5 5 6 7 8 9 10 11 10 11 9 10 9 10 12 12 14 8 11 11 8 8 8 8
2 3 5 6 6 5 5 3 3 3 3 4 4 3 3 5 7 6 7 7 7 9 8 10 11 11 10 10 10 13 11 10 9 11 10 10 10 10
6 4 3 3 3 3 2 3 2 3 3 3 4 6 7 7 7 7 6 7 7 9 10 7 8 9 10 13 13 13 13 12 10 11 12 12 10 10
5 4 4 3 3 3 3 3 2 4 4 4 6 6 6 6 7 7 8 8 9 9 10 9 8 8 10 11 20 14 11 12 10 11 11 12 12 9
5 4 4 4 3 3 3 4 5 5 4 4 6 6 6 6 10 8 8 8 9 9 9 9 9 9 11 13 8 16 12 9 11 12 11 11 13 12
3 4 4 4 4 4 5 5 6 6 6 6 6 6 6 7 7 8 8 9 9 11 10 9 9 10 11 12 14 12 15 12 10 11 12 11 13 23
4 4 4 4 4 5 6 5 7 7 7 6 7 7 7 7 8 8 9 17 18 11 11 11 10 21 12 13 12 12 10 18 19 14 13 13 14 13
4 5 5 4 5 5 7 7 7 8 6 8 8 7 7 7 9 9 9 10 10 11 12 11 12 11 11 12 15 16 14 11 12 20 24 22 13 11
5 5 5 5 5 5 5 6 7 8 8 8 8 8 8 8 9 9 10 10 11 11 13 13 12 11 12 12 16 15 18 17 12 11 10 19 23 28
Wind_Direction
226 231 214 126 107 37 55 119 196 192 196 110 29 32 68 86 142 57 21 327 291 277 278 280 283 289 292 292 292 290 290 288 286 283 280 278 277 276
204 206 121 100 100 88 94 75 43 100 134 68 94 95 50 106 108 357 316 301 288 279 275 278 279 283 288 290 290 288 286 285 283 283 282 282 283 282
117 124 113 118 117 112 105 92 80 91 126 115 159 135 179 221 254 309 272 261 264 270 278 279 277 281 286 289 290 288 287 284 284 283 284 284 286 289
107 110 115 111 109 115 112 111 122 106 148 133 196 118 207 211 255 239 256 258 257 269 279 284 289 287 284 286 286 284 281 281 281 281 282 284 282 278
105 112 123 125 121 118 103 102 103 98 64 104 92 134 199 212 232 253 268 259 266 267 270 278 288 289 288 288 285 283 283 282 283 283 283 283 283 283
102 105 103 105 115 108 104 103 104 110 115 100 131 167 216 207 220 258 258 243 286 290 293 290 283 286 284 285 283 281 279 280 281 280 278 278 278 277
69 77 81 103 110 112 118 107 119 102 123 196 196 214 228 213 219 244 286 283 304 287 290 283 285 297 286 285 283 286 283 282 282 281 280 279 277 277
81 71 69 66 79 94 116 137 169 184 204 255 251 248 271 257 263 307 355 323 306 279 307 288 282 290 285 280 286 289 288 286 284 283 283 281 280 279
81 86 95 97 105 130 116 116 226 260 285 273 260 262 284 355 77 320 281 270 280 288 288 285 290 283 282 283 293 294 292 290 290 288 286 283 281 279
85 100 105 121 75 13 37 64 248 229 218 248 254 294 308 305 272 232 244 260 268 269 271 282 296 289 290 286 292 295 295 294 293 291 290 288 285 282
79 58 54 58 79 304 284 213 269 270 193 238 275 286 284 279 269 283 274 273 284 297 303 298 273 300 297 287 281 288 294 295 296 293 292 290 286 284
84 89 57 16 1 338 317 329 306 332 339 298 283 279 263 250 256 241 259 261 284 302 186 311 327 320 297 273 282 315 290 286 292 294 293 290 287 281
21 25 49 5 7 355 340 323 328 336 301 291 266 269 266 257 244 235 231 194 254 251 266 301 288 300 275 295 287 297 294 287 283 284 289 291 290 284
354 355 37 3 338 332 327 320 306 304 285 284 285 280 286 299 289 279 278 277 266 262 277 283 274 277 279 284 285 294 294 292 291 283 280 283 288 285
10 8 331 323 315 299 264 301 302 272 278 278 271 267 283 288 288 277 266 256 254 248 259 256 247 261 256 266 279 291 296 294 288 281 272 270 269 269
6 307 314 295 281 280 283 248 236 279 301 305 299 304 297 287 282 278 282 285 279 282 263 254 248 243 255 257 265 275 276 276 289 284 278 274 269 261
326 296 288 290 289 267 251 250 265 270 275 284 298 296 297 296 289 291 286 285 274 285 291 285 281 272 260 261 269 270 280 275 270 271 276 276 265 259
313 291 300 294 292 303 304 305 314 298 286 303 297 294 291 292 292 288 281 273 275 284 287 292 292 283 273 258 246 267 265 271 274 272 271 279 281 273
282 303 299 295 297 300 298 296 294 292 305 274 263 273 283 284 296 289 282 273 274 273 278 288 285 280 286 286 282 253 276 281 287 284 277 270 275 280
266 291 296 300 299 300 293 292 288 287 282 281 281 274 272 278 284 283 280 277 279 284 282 280 280 285 278 284 294 289 259 274 272 274 278 273 271 278
290 283 283 281 278 276 274 271 274 277 275 276 280 278 269 267 271 273 274 283 282 282 283 281 281 290 288 287 277 278 272 245 246 262 277 281 287 288
279 276 272 270 269 270 276 279 281 282 278 283 279 278 274 271 272 276 274 275 275 277 280 282 286 281 272 267 274 285 287 278 257 257 256 258 272 276
273 273 275 275 271 273 271 271 272 274 275 279 280 277 276 273 270 272 274 271 273 277 281 284 285 282 269 262 270 284 284 291 288 279 265 256 255 259